Tracking 35275 objects as of 8-Sep-2026
HD Live streaming from Space Station
objects crossing your sky now

AVUM DEB


AVUM DEB is no longer on orbit


NORAD ID: 57656
Int'l Code: 2013-021E
Launch date: May 7, 2013
Source: European Space Agency (ESA)
Launch site: FRENCH GUIANA (FRGUI)
Decay date: 2023-10-11

Note: This is SATELLITE DEBRIS
Your satellite tracking list
Your tracking list is empty




NASA's NSSDC Master Catalog

Two Line Element Set (TLE):
1 57656U 13021E   23279.34426110  .07470963  00000-0  22982+0 0  9998
2 57656  98.6949 196.3886 0052928 118.0019 242.6585 15.27317618  8701
Source of the keplerian elements: AFSPC